Location: Sungai Igah
(2.7333°N, 114.2500°E)
Time: 20:44:47
(UTC+00:00)

USA 215 - Pass Details

Date: 14 June 2021
Orbit: 1100 x 1107 km, 123.0° (Epoch: 22 June)

Event Time Altitude Azimuth Distance (km) Brightness Sun altitude
Rises 12:35:37 0° 29° (NNE) 3,903 6.2 -28.8°
Reaches altitude 10° 12:38:07 10° 26° (NNE) 2,948 5.5 -29.3°
Maximum altitude 12:44:30 61° 307° (NW) 1,235 3.6 -30.7°
Drops below altitude 10° 12:50:56 10° 228° (SW) 2,959 5.7 -32.1°
Sets 12:53:27 0° 224° (SW) 3,919 6.3 -32.7°
